| time (UTC) | temp F | wind direction | speed MPH | gust MPH | rain 1hr in | rain 24hr in | rain mn in | humidity % | barometer mb |
| 20260503200614 | 81 | 199 | 1.0 | 4.0 | 0.00 | 0.00 | 0.00 | 48 | 1014.7 |
| 20260503200116 | 81 | 205 | 1.0 | 6.0 | 0.00 | 0.00 | 0.00 | 52 | 1014.7 |
| 20260503195547 | 80 | 219 | 1.0 | 6.0 | 0.00 | 0.00 | 0.00 | 47 | 1014.9 |
| 20260503195044 | 80 | 221 | 2.0 | 6.0 | 0.00 | 0.00 | 0.00 | 49 | 1014.8 |
| 20260503194516 | 80 | 144 | 2.0 | 6.0 | 0.00 | 0.00 | 0.00 | 53 | 1014.8 |
| 20260503194458 | 80 | 211 | 2.0 | 6.0 | 0.00 | 0.00 | 0.00 | 49 | 1014.9 |
| 20260503193439 | 80 | 224 | 2.0 | 5.0 | 0.00 | 0.00 | 0.00 | 50 | 1015.0 |
| 20260503192935 | 81 | 236 | 2.0 | 5.0 | 0.00 | 0.00 | 0.00 | 47 | 1015.2 |
| 20260503192430 | 81 | 212 | 1.0 | 5.0 | 0.00 | 0.00 | 0.00 | 49 | 1015.2 |
| 20260503191927 | 81 | 266 | 1.0 | 5.0 | 0.00 | 0.00 | 0.00 | 51 | 1015.3 |
| 20260503191422 | 81 | 190 | 0.0 | 2.0 | 0.00 | 0.00 | 0.00 | 50 | 1015.4 |
| 20260503190919 | 80 | 136 | 1.0 | 4.0 | 0.00 | 0.00 | 0.00 | 56 | 1015.5 |
| 20260503190405 | 80 | 201 | 1.0 | 4.0 | 0.00 | 0.00 | 0.00 | 53 | 1015.5 |
| 20260503185901 | 79 | 206 | 2.0 | 3.0 | 0.00 | 0.00 | 0.00 | 52 | 1015.5 |
| 20260503185400 | 79 | 247 | 1.0 | 4.0 | 0.00 | 0.00 | 0.00 | 50 | 1015.6 |
| 20260503184834 | 79 | 213 | 1.0 | 5.0 | 0.00 | 0.00 | 0.00 | 51 | 1015.6 |
| 20260503184308 | 79 | 242 | 1.0 | 7.0 | 0.00 | 0.00 | 0.00 | 52 | 1015.7 |
| 20260503183806 | 79 | 193 | 2.0 | 7.0 | 0.00 | 0.00 | 0.00 | 50 | 1015.6 |
| 20260503183308 | 78 | 197 | 2.0 | 13.0 | 0.00 | 0.00 | 0.00 | 53 | 1015.7 |
| 20260503182805 | 78 | 220 | 2.0 | 13.0 | 0.00 | 0.00 | 0.00 | 53 | 1015.7 |
| 20260503182238 | 79 | 287 | 1.0 | 4.0 | 0.00 | 0.00 | 0.00 | 53 | 1015.9 |
| 20260503181709 | 78 | 209 | 1.0 | 4.0 | 0.00 | 0.00 | 0.00 | 49 | 1016.1 |
| 20260503181144 | 78 | 170 | 1.0 | 4.0 | 0.00 | 0.00 | 0.00 | 50 | 1016.2 |
| 20260503181104 | 78 | 218 | 2.0 | 4.0 | 0.00 | 0.00 | 0.00 | 51 | 1016.3 |
| 20260503180052 | 78 | 144 | 2.0 | 4.0 | 0.00 | 0.00 | 0.00 | 53 | 1016.4 |
| 20260503175525 | 77 | 229 | 2.0 | 10.0 | 0.00 | 0.00 | 0.00 | 50 | 1016.5 |
| 20260503175000 | 78 | 231 | 2.0 | 10.0 | 0.00 | 0.00 | 0.00 | 48 | 1016.5 |
| 20260503174432 | 78 | 198 | 2.0 | 5.0 | 0.00 | 0.00 | 0.00 | 51 | 1016.6 |
| 20260503173929 | 78 | 202 | 1.0 | 4.0 | 0.00 | 0.00 | 0.00 | 51 | 1016.5 |
| 20260503173402 | 78 | 187 | 1.0 | 5.0 | 0.00 | 0.00 | 0.00 | 49 | 1016.6 |
| 20260503172836 | 78 | 205 | 1.0 | 8.0 | 0.00 | 0.00 | 0.00 | 49 | 1016.6 |
| 20260503172320 | 78 | 177 | 1.0 | 8.0 | 0.00 | 0.00 | 0.00 | 53 | 1016.6 |
| 20260503171821 | 77 | 215 | 1.0 | 5.0 | 0.00 | 0.00 | 0.00 | 54 | 1016.6 |
| 20260503171317 | 77 | 196 | 1.0 | 5.0 | 0.00 | 0.00 | 0.00 | 51 | 1016.6 |
| 20260503170800 | 76 | 168 | 1.0 | 4.0 | 0.00 | 0.00 | 0.00 | 50 | 1016.8 |
| 20260503170741 | 76 | 158 | 2.0 | 4.0 | 0.00 | 0.00 | 0.00 | 51 | 1016.8 |
| 20260503150719 | 69 | 221 | 2.0 | 7.0 | 0.00 | 0.00 | 0.00 | 51 | 1018.4 |
| 20260503150152 | 69 | 172 | 2.0 | 7.0 | 0.00 | 0.00 | 0.00 | 51 | 1018.4 |
| 20260503131210 | 57 | 156 | 0.0 | 1.0 | 0.00 | 0.00 | 0.00 | 75 | 1018.8 |
| 20260503131152 | 56 | 153 | 0.0 | 1.0 | 0.00 | 0.00 | 0.00 | 77 | 1018.8 |
| 20260503130203 | 55 | 153 | 0.0 | 1.0 | 0.00 | 0.00 | 0.00 | 77 | 1018.7 |
| 20260503130145 | 54 | 155 | 0.0 | 1.0 | 0.00 | 0.00 | 0.00 | 80 | 1018.8 |
| 20260503110622 | 38 | 247 | 0.0 | 0.0 | 0.00 | 0.00 | 0.00 | 93 | 1018.3 |
| 20260503080817 | 40 | 247 | 0.0 | 0.0 | 0.00 | 0.00 | 0.00 | 91 | 1019.2 |
| 20260503080314 | 40 | 247 | 0.0 | 0.0 | 0.00 | 0.00 | 0.00 | 91 | 1019.1 |
| 20260503072614 | 40 | 247 | 0.0 | 0.0 | 0.00 | 0.00 | 0.00 | 90 | 1019.4 |
| 20260503072113 | 40 | 247 | 0.0 | 0.0 | 0.00 | 0.00 | 0.00 | 90 | 1019.4 |
| 20260503072035 | 40 | 247 | 0.0 | 0.0 | 0.00 | 0.00 | 0.00 | 90 | 1019.6 |
| 20260503071027 | 40 | 247 | 0.0 | 0.0 | 0.00 | 0.00 | 0.00 | 90 | 1019.5 |
| 20260503070526 | 40 | 247 | 0.0 | 0.0 | 0.00 | 0.00 | 0.00 | 90 | 1019.5 |
| 20260503070516 | 40 | 247 | 0.0 | 0.0 | 0.00 | 0.00 | 0.00 | 90 | 1019.6 |
| 20260503060314 | 43 | 247 | 0.0 | 0.0 | 0.00 | 0.00 | 0.00 | 87 | 1019.9 |
| 20260503054737 | 44 | 247 | 0.0 | 0.0 | 0.00 | 0.00 | 0.00 | 86 | 1019.9 |
| 20260503054236 | 44 | 247 | 0.0 | 0.0 | 0.00 | 0.00 | 0.00 | 86 | 1020.2 |
| 20260503053736 | 44 | 247 | 0.0 | 0.0 | 0.00 | 0.00 | 0.00 | 87 | 1020.1 |
| 20260503053712 | 44 | 247 | 0.0 | 0.0 | 0.00 | 0.00 | 0.00 | 86 | 1020.1 |
| 20260503052715 | 43 | 247 | 0.0 | 0.0 | 0.00 | 0.00 | 0.00 | 85 | 1020.1 |
| 20260503052213 | 43 | 247 | 0.0 | 0.0 | 0.00 | 0.00 | 0.00 | 86 | 1020.1 |
| 20260503051712 | 43 | 247 | 0.0 | 0.0 | 0.00 | 0.00 | 0.00 | 85 | 1020.1 |
| 20260503051651 | 43 | 247 | 0.0 | 0.0 | 0.00 | 0.00 | 0.00 | 84 | 1019.9 |
| 20260503051127 | 43 | 247 | 0.0 | 0.0 | 0.00 | 0.00 | 0.00 | 83 | 1019.9 |
| 20260503050120 | 44 | 247 | 0.0 | 0.0 | 0.00 | 0.00 | 0.00 | 83 | 1019.9 |
| 20260503045620 | 44 | 247 | 0.0 | 0.0 | 0.00 | 0.00 | 0.00 | 82 | 1019.9 |
| 20260503045055 | 44 | 247 | 0.0 | 0.0 | 0.00 | 0.00 | 0.00 | 82 | 1019.9 |
| 20260503044536 | 45 | 247 | 0.0 | 0.0 | 0.00 | 0.00 | 0.00 | 82 | 1019.9 |
| 20260503044015 | 45 | 247 | 0.0 | 0.0 | 0.00 | 0.00 | 0.00 | 81 | 1019.9 |
| 20260503043511 | 45 | 247 | 0.0 | 0.0 | 0.00 | 0.00 | 0.00 | 81 | 1019.9 |
| 20260503043006 | 45 | 247 | 0.0 | 0.0 | 0.00 | 0.00 | 0.00 | 80 | 1019.8 |
| 20260503042507 | 45 | 247 | 0.0 | 0.0 | 0.00 | 0.00 | 0.00 | 80 | 1019.8 |
| 20260503041940 | 45 | 247 | 0.0 | 0.0 | 0.00 | 0.00 | 0.00 | 80 | 1019.8 |
| 20260503041924 | 45 | 247 | 0.0 | 0.0 | 0.00 | 0.00 | 0.00 | 79 | 1019.8 |
| 20260503040934 | 45 | 247 | 0.0 | 0.0 | 0.00 | 0.00 | 0.00 | 79 | 1019.7 |
| 20260503040432 | 45 | 247 | 0.0 | 0.0 | 0.00 | 0.00 | 0.00 | 78 | 1019.7 |
| 20260503035933 | 45 | 247 | 0.0 | 0.0 | 0.00 | 0.00 | 0.00 | 77 | 1019.7 |
| 20260503035851 | 46 | 247 | 0.0 | 0.0 | 0.00 | 0.00 | 0.00 | 77 | 1019.8 |
| 20260503034845 | 46 | 247 | 0.0 | 0.0 | 0.00 | 0.00 | 0.00 | 76 | 1019.8 |
| 20260503034326 | 46 | 247 | 0.0 | 0.0 | 0.00 | 0.00 | 0.00 | 76 | 1019.8 |
| 20260503034247 | 46 | 247 | 0.0 | 0.0 | 0.00 | 0.00 | 0.00 | 75 | 1019.9 |
| 20260503033236 | 47 | 247 | 0.0 | 0.0 | 0.00 | 0.00 | 0.00 | 74 | 1019.8 |
| 20260503032713 | 47 | 247 | 0.0 | 0.0 | 0.00 | 0.00 | 0.00 | 73 | 1019.8 |
| 20260503032148 | 47 | 247 | 0.0 | 0.0 | 0.00 | 0.00 | 0.00 | 72 | 1019.8 |
| 20260503031626 | 48 | 247 | 0.0 | 0.0 | 0.00 | 0.00 | 0.00 | 72 | 1019.8 |
| 20260503031104 | 48 | 247 | 0.0 | 0.0 | 0.00 | 0.00 | 0.00 | 73 | 1019.7 |
| 20260503030536 | 49 | 247 | 0.0 | 0.0 | 0.00 | 0.00 | 0.00 | 71 | 1019.6 |
| 20260503030020 | 49 | 247 | 0.0 | 0.0 | 0.00 | 0.00 | 0.00 | 70 | 1019.6 |
| 20260503025523 | 49 | 247 | 0.0 | 0.0 | 0.00 | 0.00 | 0.00 | 69 | 1019.6 |
| 20260503025017 | 50 | 247 | 0.0 | 0.0 | 0.00 | 0.00 | 0.00 | 68 | 1019.5 |
| 20260503024515 | 50 | 247 | 0.0 | 0.0 | 0.00 | 0.00 | 0.00 | 68 | 1019.4 |
| 20260503024011 | 51 | 247 | 0.0 | 0.0 | 0.00 | 0.00 | 0.00 | 67 | 1019.5 |
| 20260503023927 | 51 | 247 | 0.0 | 0.0 | 0.00 | 0.00 | 0.00 | 66 | 1019.4 |
| 20260503022942 | 51 | 247 | 0.0 | 0.0 | 0.00 | 0.00 | 0.00 | 65 | 1019.5 |
| 20260503022415 | 52 | 247 | 0.0 | 0.0 | 0.00 | 0.00 | 0.00 | 63 | 1019.4 |
| 20260503021914 | 53 | 247 | 0.0 | 0.0 | 0.00 | 0.00 | 0.00 | 62 | 1019.4 |
| 20260503021348 | 53 | 247 | 0.0 | 0.0 | 0.00 | 0.00 | 0.00 | 61 | 1019.3 |
| 20260503020823 | 54 | 247 | 0.0 | 0.0 | 0.00 | 0.00 | 0.00 | 60 | 1019.2 |
| 20260503020801 | 55 | 247 | 0.0 | 0.0 | 0.00 | 0.00 | 0.00 | 59 | 1019.2 |
| 20260503015812 | 55 | 247 | 0.0 | 0.0 | 0.00 | 0.00 | 0.00 | 58 | 1019.2 |
| 20260503015246 | 56 | 247 | 0.0 | 0.0 | 0.00 | 0.00 | 0.00 | 57 | 1019.1 |
| 20260503014718 | 56 | 247 | 0.0 | 2.0 | 0.00 | 0.00 | 0.00 | 56 | 1019.2 |
| 20260503014636 | 56 | 247 | 0.0 | 3.0 | 0.00 | 0.00 | 0.00 | 56 | 1019.1 |
| 20260503013638 | 57 | 252 | 0.0 | 3.0 | 0.00 | 0.00 | 0.00 | 56 | 1019.0 |
| 20260503013137 | 57 | 260 | 0.0 | 2.0 | 0.00 | 0.00 | 0.00 | 56 | 1019.0 |
| 20260503012630 | 57 | 252 | 0.0 | 1.0 | 0.00 | 0.00 | 0.00 | 56 | 1019.0 |
| 20260503012614 | 57 | 252 | 0.0 | 0.0 | 0.00 | 0.00 | 0.00 | 55 | 1018.8 |
| 20260503011616 | 58 | 252 | 0.0 | 1.0 | 0.00 | 0.00 | 0.00 | 55 | 1018.8 |
| 20260503011118 | 58 | 252 | 0.0 | 1.0 | 0.00 | 0.00 | 0.00 | 55 | 1018.8 |
| 20260503011058 | 59 | 252 | 0.0 | 1.0 | 0.00 | 0.00 | 0.00 | 53 | 1018.7 |
| 20260503010048 | 60 | 253 | 0.0 | 1.0 | 0.00 | 0.00 | 0.00 | 52 | 1018.8 |
| 20260503005520 | 61 | 248 | 0.0 | 2.0 | 0.00 | 0.00 | 0.00 | 51 | 1018.7 |
| 20260503005017 | 62 | 248 | 0.0 | 3.0 | 0.00 | 0.00 | 0.00 | 48 | 1018.7 |
| 20260503004514 | 63 | 247 | 0.0 | 3.0 | 0.00 | 0.00 | 0.00 | 47 | 1018.8 |
| 20260503004448 | 63 | 248 | 1.0 | 3.0 | 0.00 | 0.00 | 0.00 | 48 | 1018.7 |
| 20260503003926 | 64 | 246 | 2.0 | 5.0 | 0.00 | 0.00 | 0.00 | 47 | 1018.6 |
| 20260503002941 | 64 | 250 | 3.0 | 7.0 | 0.00 | 0.00 | 0.00 | 46 | 1018.7 |
| 20260503002440 | 65 | 259 | 2.0 | 7.0 | 0.00 | 0.00 | 0.00 | 44 | 1018.7 |
| 20260503001938 | 65 | 265 | 2.0 | 7.0 | 0.00 | 0.00 | 0.00 | 42 | 1018.7 |
| 20260503001436 | 65 | 255 | 2.0 | 5.0 | 0.00 | 0.00 | 0.00 | 41 | 1018.7 |
| 20260503000914 | 65 | 258 | 2.0 | 7.0 | 0.00 | 0.00 | 0.00 | 44 | 1018.7 |
| 20260503000341 | 65 | 242 | 4.0 | 10.0 | 0.00 | 0.00 | 0.00 | 42 | 1018.7 |
| 20260503000321 | 65 | 255 | 4.0 | 10.0 | 0.00 | 0.00 | 0.00 | 42 | 1018.7 |
| 20260502235311 | 65 | 269 | 5.0 | 8.0 | 0.00 | 0.00 | 0.00 | 41 | 1018.7 |
| 20260502235300 | 66 | 261 | 4.0 | 8.0 | 0.00 | 0.00 | 0.00 | 41 | 1018.7 |
| 20260502234304 | 66 | 236 | 3.0 | 8.0 | 0.00 | 0.00 | 0.00 | 40 | 1018.7 |
| 20260502233802 | 67 | 179 | 2.0 | 6.0 | 0.00 | 0.00 | 0.00 | 40 | 1018.6 |
| 20260502233727 | 67 | 245 | 2.0 | 6.0 | 0.00 | 0.00 | 0.00 | 40 | 1018.7 |
| 20260502233204 | 67 | 282 | 2.0 | 7.0 | 0.00 | 0.00 | 0.00 | 42 | 1018.7 |
| 20260502232657 | 66 | 303 | 4.0 | 8.0 | 0.00 | 0.00 | 0.00 | 44 | 1018.7 |
| 20260502231706 | 66 | 246 | 4.0 | 8.0 | 0.00 | 0.00 | 0.00 | 42 | 1018.7 |
| 20260502231204 | 66 | 248 | 3.0 | 8.0 | 0.00 | 0.00 | 0.00 | 41 | 1018.8 |
| 20260502230157 | 67 | 266 | 4.0 | 10.0 | 0.00 | 0.00 | 0.00 | 41 | 1018.9 |
| 20260502225653 | 67 | 292 | 4.0 | 10.0 | 0.00 | 0.00 | 0.00 | 40 | 1018.8 |
| 20260502225127 | 67 | 255 | 2.0 | 8.0 | 0.00 | 0.00 | 0.00 | 39 | 1018.7 |
| 20260502224624 | 67 | 206 | 2.0 | 9.0 | 0.00 | 0.00 | 0.00 | 40 | 1018.8 |
| 20260502224122 | 66 | 260 | 5.0 | 10.0 | 0.00 | 0.00 | 0.00 | 40 | 1018.8 |
| 20260502223611 | 66 | 314 | 6.0 | 12.0 | 0.00 | 0.00 | 0.00 | 41 | 1018.8 |
| 20260502223113 | 66 | 256 | 5.0 | 12.0 | 0.00 | 0.00 | 0.00 | 39 | 1018.8 |
| 20260502223037 | 66 | 179 | 5.0 | 13.0 | 0.00 | 0.00 | 0.00 | 43 | 1018.8 |
| 20260502222021 | 66 | 262 | 5.0 | 13.0 | 0.00 | 0.00 | 0.00 | 42 | 1018.7 |
| 20260502222010 | 67 | 266 | 4.0 | 9.0 | 0.00 | 0.00 | 0.00 | 41 | 1018.7 |
| 20260502221003 | 66 | 251 | 4.0 | 10.0 | 0.00 | 0.00 | 0.00 | 42 | 1018.7 |
| 20260502220503 | 67 | 250 | 4.0 | 10.0 | 0.00 | 0.00 | 0.00 | 39 | 1018.9 |
| 20260502220000 | 67 | 269 | 5.0 | 11.0 | 0.00 | 0.00 | 0.00 | 42 | 1018.8 |
| 20260502215433 | 66 | 276 | 5.0 | 11.0 | 0.00 | 0.00 | 0.00 | 40 | 1018.9 |
| 20260502214908 | 66 | 264 | 5.0 | 10.0 | 0.00 | 0.00 | 0.00 | 38 | 1019.0 |
| 20260502214404 | 66 | 252 | 4.0 | 10.0 | 0.00 | 0.00 | 0.00 | 40 | 1018.9 |
| 20260502213901 | 66 | 257 | 4.0 | 9.0 | 0.00 | 0.00 | 0.00 | 39 | 1018.9 |
| 20260502213358 | 66 | 248 | 5.0 | 12.0 | 0.00 | 0.00 | 0.00 | 39 | 1019.0 |
| 20260502213311 | 67 | 61 | 4.0 | 12.0 | 0.00 | 0.00 | 0.00 | 39 | 1019.0 |
| 20260502212305 | 67 | 259 | 4.0 | 9.0 | 0.00 | 0.00 | 0.00 | 41 | 1019.1 |
| 20260502211802 | 66 | 271 | 5.0 | 11.0 | 0.00 | 0.00 | 0.00 | 40 | 1019.0 |
| 20260502211234 | 67 | 270 | 5.0 | 16.0 | 0.00 | 0.00 | 0.00 | 42 | 1019.1 |
| 20260502210721 | 67 | 270 | 5.0 | 16.0 | 0.00 | 0.00 | 0.00 | 39 | 1019.0 |
| 20260502210222 | 67 | 240 | 5.0 | 13.0 | 0.00 | 0.00 | 0.00 | 44 | 1019.3 |
| 20260502210210 | 66 | 276 | 6.0 | 13.0 | 0.00 | 0.00 | 0.00 | 44 | 1019.2 |
| 20260502205214 | 66 | 224 | 6.0 | 14.0 | 0.00 | 0.00 | 0.00 | 41 | 1019.2 |
| 20260502204649 | 67 | 252 | 6.0 | 14.0 | 0.00 | 0.00 | 0.00 | 42 | 1019.4 |
| 20260502204120 | 67 | 266 | 5.0 | 14.0 | 0.00 | 0.00 | 0.00 | 39 | 1019.4 |
| 20260502204106 | 67 | 225 | 4.0 | 14.0 | 0.00 | 0.00 | 0.00 | 44 | 1019.4 |
| 20260502203111 | 67 | 272 | 4.0 | 13.0 | 0.00 | 0.00 | 0.00 | 37 | 1019.4 |
| 20260502202545 | 67 | 259 | 4.0 | 8.0 | 0.00 | 0.00 | 0.00 | 42 | 1019.4 |
| 20260502202042 | 67 | 290 | 4.0 | 9.0 | 0.00 | 0.00 | 0.00 | 45 | 1019.4 |
| 20260502201540 | 67 | 267 | 5.0 | 12.0 | 0.00 | 0.00 | 0.00 | 43 | 1019.5 |
| 20260502201012 | 67 | 237 | 6.0 | 12.0 | 0.00 | 0.00 | 0.00 | 41 | 1019.5 |